GFSGBSN_925_rhum_291.txt.gz
RH
85 86 86 86 88 89 90 92 93 92 89 87 86 74 42 17 9 10 24 19 75 75 58 50 40 36 49 20 24 16 16 24 27 28 25 29 34 26 28 19 24 28 24 20 18 20 24
85 87 85 87 89 90 91 92 93 93 92 88 68 42 17 8 5 5 6 19 38 46 59 63 46 29 29 19 23 14 12 20 26 23 25 23 27 33 35 31 31 23 26 28 26 24 23
87 86 85 88 88 90 92 93 94 94 92 88 56 22 8 5 4 4 4 22 32 34 52 62 42 29 16 20 16 11 13 21 23 24 24 28 28 30 26 30 26 33 37 23 19 16 18
88 88 88 88 90 91 92 92 94 94 94 91 73 25 7 5 4 4 4 17 28 38 47 45 48 37 26 30 24 11 14 14 16 22 37 38 36 30 28 23 23 21 20 22 11 14 14
87 88 89 89 89 89 91 92 92 93 93 91 72 27 10 4 3 3 4 18 25 36 46 34 44 32 38 20 20 13 15 22 13 11 26 36 33 30 28 40 26 16 18 14 11 9 12
87 88 87 89 88 89 89 90 91 92 93 93 87 38 11 4 3 3 3 16 25 25 30 33 22 19 17 19 19 14 16 21 13 14 19 14 14 29 24 29 35 25 25 19 17 13 14
84 87 85 85 87 88 89 89 90 91 92 93 91 71 33 6 5 5 8 25 17 22 28 34 30 22 18 23 18 14 19 18 12 14 16 18 22 16 16 22 27 25 24 19 14 12 16
86 84 84 86 85 86 87 88 88 89 90 92 92 92 56 9 6 6 23 21 36 48 28 40 28 21 20 24 18 17 15 14 11 14 14 13 14 24 22 20 21 20 24 24 18 15 17
85 82 85 83 86 85 86 87 88 88 88 90 91 91 74 12 8 23 26 40 48 55 35 39 25 18 18 22 22 22 17 15 17 10 14 15 10 23 19 18 22 23 30 29 27 21 21
83 87 84 83 83 85 85 84 84 86 86 88 89 88 47 8 28 23 25 45 50 62 31 40 33 22 18 21 25 20 20 17 13 16 19 15 24 20 15 14 12 26 21 21 31 36 44
85 83 82 82 86 86 84 85 84 84 84 87 87 85 33 17 23 19 34 57 64 59 60 42 29 20 18 21 22 24 21 15 16 16 21 16 20 17 18 16 29 34 17 18 23 41 48
83 81 80 81 84 80 79 85 87 81 82 84 88 71 26 38 26 36 39 64 65 40 54 37 25 24 23 23 27 22 20 19 19 24 19 22 21 19 21 24 24 17 21 26 30 42 73
78 81 80 82 81 83 78 75 76 83 81 84 83 33 43 31 29 28 57 52 36 33 16 29 27 23 24 24 27 25 22 31 35 30 19 19 19 20 21 24 21 22 45 66 55 67 60
84 80 79 80 83 79 78 80 79 84 80 85 53 34 36 39 35 30 51 20 24 14 15 27 24 24 25 26 27 27 27 26 59 50 40 38 39 23 23 31 35 30 40 60 68 54 40
80 81 82 83 83 77 86 88 91 82 81 90 50 39 37 44 26 38 21 23 16 19 24 24 22 26 21 33 28 28 28 35 41 49 46 43 36 24 23 23 27 32 46 44 62 40 61
74 78 74 72 76 94 85 82 82 82 85 76 51 29 30 27 26 33 19 17 16 27 28 28 19 17 20 23 33 28 33 36 46 45 49 54 62 26 22 26 33 48 43 57 48 78 66
76 76 77 90 95 88 83 82 83 84 89 56 46 25 41 24 35 23 27 20 28 29 27 28 25 24 22 26 27 29 34 40 33 44 46 49 55 41 27 39 54 47 54 55 56 56 66
75 80 96 81 80 79 83 94 82 86 72 56 45 31 41 34 24 21 42 44 41 29 31 30 32 31 30 27 31 31 39 36 33 32 44 43 56 52 36 73 67 58 60 61 79 50 58
78 88 78 79 84 98 92 85 79 85 78 66 43 33 35 34 24 21 24 30 32 31 30 31 34 35 29 32 39 30 28 26 28 30 42 56 56 64 47 82 73 68 69 68 67 73 73
84 79 78 79 88 91 81 91 87 91 81 75 44 38 28 26 26 31 36 35 34 32 32 31 33 30 32 35 29 39 34 31 30 30 33 40 69 80 65 58 80 82 71 70 74 83 80
72 78 90 82 91 80 85 90 94 93 71 74 46 42 45 41 36 38 42 44 40 42 37 33 36 39 40 44 35 32 31 30 28 31 34 47 63 42 50 52 64 66 74 78 81 76 86
87 81 81 80 80 80 94 92 94 93 77 74 56 58 62 52 44 48 43 47 51 44 44 44 50 42 37 70 62 52 34 32 35 28 40 43 72 66 61 49 52 68 68 71 79 74 77
78 93 82 84 78 93 94 84 82 90 96 89 78 68 70 50 45 71 46 43 46 44 44 38 41 44 48 41 42 48 40 36 35 46 38 56 63 66 63 77 56 74 65 69 75 74 82
85 76 78 86 94 91 90 82 80 84 97 96 88 91 88 64 42 38 41 42 44 56 57 50 45 52 43 39 42 47 42 37 36 37 38 62 57 57 71 71 82 80 58 53 68 75 73
81 86 94 87 79 82 75 77 79 79 83 97 98 95 86 76 50 53 50 49 48 51 89 56 44 60 64 66 82 87 56 46 45 42 49 48 70 73 85 55 78 80 74 80 77 88 74
93 77 74 79 77 80 86 77 70 67 69 73 89 99 97 95 60 65 60 64 67 66 51 43 57 76 81 86 86 80 57 37 57 75 57 67 75 89 80 72 67 74 63 62 68 83 69
78 78 83 74 85 78 71 72 66 72 84 79 91 95 99 88 63 86 90 80 58 64 66 51 53 67 67 80 84 74 53 47 46 45 70 68 77 87 77 69 86 71 63 63 92 90 64
81 78 74 86 78 70 70 69 76 80 84 87 90 93 93 79 70 87 88 85 73 72 76 66 69 62 73 80 68 66 50 67 64 75 75 74 86 83 81 84 90 74 64 81 84 63 63
76 77 81 74 72 72 70 70 84 81 77 84 88 100 98 97 92 91 98 98 96 93 88 73 69 58 86 82 69 55 53 56 71 79 67 83 88 86 89 88 85 81 84 77 73 72 69

GFSGBSN_925_rhum_294.txt.gz
RH
88 84 86 88 86 89 91 92 93 93 91 89 86 63 45 22 16 6 6 16 27 61 64 51 30 30 44 28 22 13 15 17 22 23 23 24 33 30 30 23 22 26 25 22 21 24 24
86 85 88 87 88 90 90 91 93 94 92 90 73 44 19 10 7 4 4 10 22 32 45 57 30 27 37 23 17 10 11 16 20 20 22 22 27 29 41 37 33 28 30 30 28 28 26
87 86 90 90 90 92 91 93 94 94 94 92 70 35 10 5 4 4 4 7 21 28 38 38 33 47 18 20 18 11 13 17 15 26 27 26 30 29 28 31 24 28 41 32 21 19 22
85 86 88 88 87 88 91 92 93 93 94 93 81 46 14 5 3 3 3 5 22 29 31 31 40 50 28 26 23 11 14 14 15 11 28 35 33 33 29 26 25 24 24 29 15 18 17
88 88 88 88 86 89 90 91 92 93 94 94 93 61 23 5 3 3 3 10 18 20 29 29 41 40 36 20 19 13 15 21 13 13 22 30 28 34 28 43 40 28 32 23 19 14 13
88 87 87 87 88 88 89 90 90 91 92 93 94 76 22 6 3 2 3 20 21 22 26 31 20 23 19 19 16 14 16 18 13 17 21 18 18 34 40 40 49 35 35 25 19 13 12
87 85 84 87 86 86 88 88 88 89 90 92 93 90 51 7 4 4 6 21 27 30 25 34 29 22 17 21 19 16 17 14 12 15 20 17 29 28 27 25 22 20 19 18 15 13 16
85 86 87 86 86 86 87 87 86 87 88 89 91 91 83 10 6 8 20 25 40 47 41 35 25 22 18 23 19 20 16 17 13 14 15 20 30 28 21 20 21 22 32 32 22 18 19
84 86 86 86 85 86 87 86 85 86 86 89 90 90 72 10 13 23 27 45 45 50 50 39 27 18 19 24 22 22 19 16 17 14 18 20 16 18 21 22 27 33 49 37 31 25 25
88 86 85 85 85 82 81 86 88 85 84 87 88 88 32 8 37 18 30 43 49 58 46 41 31 23 18 20 25 19 20 19 17 16 20 21 24 19 18 17 15 36 23 26 35 50 63
85 84 83 83 85 84 83 78 83 83 86 85 88 82 19 16 26 24 32 49 61 61 67 39 31 19 17 24 21 24 21 19 18 16 19 25 19 22 25 18 16 34 25 25 30 51 63
84 82 83 84 83 81 80 80 80 88 84 84 89 58 35 43 28 31 34 58 66 62 75 41 26 26 26 22 26 21 20 19 18 26 22 23 18 22 22 21 25 24 28 38 39 52 90
80 82 79 81 83 80 80 83 84 86 82 87 85 54 38 33 38 28 46 59 66 58 22 36 31 25 24 26 28 24 22 36 55 48 32 23 28 25 20 28 25 35 65 93 92 98 82
84 79 83 82 84 81 87 86 89 84 84 89 52 47 42 40 28 28 53 41 40 23 28 26 25 27 29 26 28 29 29 46 58 52 57 53 55 28 25 40 43 38 64 88 87 73 72
74 70 79 78 76 89 88 85 82 82 86 89 43 40 38 42 24 37 37 45 28 35 25 26 26 32 30 34 34 33 35 43 66 62 66 58 39 28 24 24 34 39 73 59 90 60 73
59 77 77 78 93 92 84 90 86 83 89 59 74 40 33 29 24 40 38 24 26 28 27 28 24 15 22 29 38 36 35 46 61 41 48 62 79 32 28 28 34 57 50 77 86 96 88
73 78 89 88 83 81 81 88 86 82 75 54 62 40 44 22 29 41 45 31 32 28 26 30 28 28 23 26 27 31 41 50 37 54 48 61 79 48 40 62 65 75 93 88 70 79 90
76 89 90 80 78 93 93 90 82 83 70 63 52 48 36 26 37 37 63 51 39 32 33 35 34 38 37 30 31 34 46 47 36 41 69 67 80 84 51 80 79 79 74 74 92 76 85
78 87 80 82 83 94 83 91 90 87 78 80 59 45 37 32 39 30 29 30 33 32 34 32 35 38 33 34 48 33 31 29 36 40 57 70 85 87 58 94 83 85 83 80 80 87 95
83 79 80 78 90 89 85 90 92 95 71 65 56 49 43 41 29 33 42 45 43 38 37 32 35 32 36 38 35 52 35 31 34 32 29 44 82 87 89 73 90 95 87 83 86 100 97
70 79 92 83 85 81 90 94 94 94 79 76 54 48 51 49 43 45 46 49 50 51 40 39 40 44 51 54 46 41 38 36 42 42 40 52 92 76 54 46 85 84 88 91 98 92 96
85 80 85 84 86 82 96 95 87 85 77 83 75 84 68 62 54 55 49 49 48 49 50 51 58 50 52 75 73 77 61 50 44 31 44 49 91 64 91 48 70 80 82 86 94 88 94
84 90 80 84 91 94 95 90 90 82 82 99 88 68 77 66 52 51 50 52 50 52 46 53 50 52 53 47 49 50 50 53 51 62 48 64 84 84 88 49 56 96 90 87 91 86 94
79 81 83 90 91 87 83 78 78 79 81 93 83 88 95 77 55 50 45 44 48 52 60 50 52 89 64 44 44 47 55 58 54 45 45 76 77 73 92 69 95 96 71 63 87 93 87
82 87 88 83 80 78 83 86 82 76 72 76 90 98 98 93 58 58 68 93 66 53 72 81 82 80 67 61 81 86 90 87 84 54 46 46 69 89 91 76 93 93 84 92 88 100 89
92 84 78 81 76 82 81 74 70 70 68 78 79 93 98 97 71 82 89 73 81 75 63 53 66 74 81 85 84 93 70 73 92 93 65 66 78 94 94 92 94 93 74 74 81 100 92
78 81 82 76 84 81 73 70 69 80 87 86 80 84 98 96 83 94 93 96 89 80 86 60 80 79 68 79 78 84 76 64 75 86 87 88 93 95 90 92 97 88 70 69 100 100 79
83 78 78 86 77 72 72 70 72 84 84 82 80 86 99 98 89 83 86 92 90 81 91 84 80 72 82 92 88 71 92 94 85 93 97 92 100 97 84 98 99 90 80 90 96 94 81
79 82 77 74 75 72 71 74 86 79 82 76 86 90 88 96 97 96 96 93 95 98 91 80 84 80 92 95 90 88 88 77 88 100 82 96 100 100 100 99 97 95 96 94 91 93 90

GFSGBSN_925_rhum_297.txt.gz
RH
84 88 86 87 89 90 92 93 94 94 95 91 88 58 40 19 12 5 5 7 18 31 42 37 20 28 37 32 21 11 12 18 18 22 23 25 33 36 33 37 34 32 28 28 32 32 30
84 91 89 88 91 90 92 93 94 95 94 93 92 61 27 12 5 4 4 4 13 21 31 30 20 26 39 26 12 11 13 16 16 24 25 28 32 29 38 40 35 34 36 37 34 35 32
86 89 88 84 86 90 91 92 93 94 94 95 94 50 18 7 4 3 3 4 13 20 26 29 28 46 23 21 16 10 13 16 15 18 33 33 32 32 33 33 28 26 32 37 34 29 30
88 85 87 86 86 89 89 92 92 93 94 93 88 56 16 6 3 2 3 7 15 22 24 26 36 51 31 21 19 11 11 16 12 12 25 35 34 35 34 30 33 26 27 32 22 22 18
89 86 84 87 88 88 89 90 91 91 93 94 94 68 18 7 3 2 3 11 14 13 24 29 35 46 40 20 20 14 13 19 15 14 18 32 29 39 33 46 51 39 41 33 25 13 13
89 86 86 86 86 86 88 89 90 90 91 93 94 83 29 6 3 2 4 14 19 23 24 31 25 26 21 23 16 15 13 15 18 15 21 18 23 44 50 50 50 39 33 24 17 15 16
88 86 86 84 85 86 85 87 88 89 90 92 93 92 43 6 3 4 5 18 18 34 22 35 31 25 20 21 18 18 16 16 15 16 23 20 23 33 30 24 22 20 21 25 22 20 23
88 90 88 84 84 86 86 87 88 88 88 91 92 92 45 6 7 7 8 39 44 43 49 37 25 22 18 23 24 24 16 18 16 19 14 27 30 27 24 21 22 23 28 36 29 22 23
86 89 87 87 84 82 85 87 88 88 89 90 91 87 24 8 19 20 18 46 44 51 70 42 27 24 22 25 28 28 25 22 17 16 19 22 23 25 21 21 25 29 49 36 35 31 26
91 87 87 87 86 87 86 84 83 87 88 87 90 80 11 7 29 24 34 37 48 60 55 43 33 26 21 22 29 20 20 20 20 18 19 21 22 20 18 18 17 45 29 28 35 47 50
86 87 86 86 84 83 85 85 84 88 86 88 91 70 35 18 25 32 29 40 60 64 45 41 34 19 18 27 31 26 21 21 20 20 20 20 24 22 25 22 17 32 26 26 31 66 74
85 84 82 86 86 84 84 87 88 86 86 88 92 66 27 30 31 31 26 54 66 58 42 42 30 29 28 24 28 25 25 20 21 28 25 23 21 22 27 27 27 25 32 43 46 74 95
81 81 81 84 86 84 90 86 85 84 85 89 89 75 30 32 41 25 36 61 59 59 24 37 34 28 30 33 35 28 28 45 54 37 43 31 27 26 24 29 27 49 68 85 86 98 85
83 76 86 84 81 88 90 88 86 86 87 91 56 48 38 33 24 25 50 39 35 28 36 26 27 27 31 30 29 32 31 65 69 67 65 67 57 30 26 51 47 44 64 84 98 86 83
79 68 79 78 88 93 86 89 88 84 88 82 54 47 39 40 23 28 42 59 32 32 26 28 29 37 38 35 31 35 40 62 69 72 52 67 46 34 31 26 40 44 61 60 89 82 94
63 68 80 93 90 84 83 88 86 83 77 55 65 55 42 32 22 38 46 36 30 28 29 29 28 32 32 45 40 40 44 59 66 48 51 60 75 40 35 30 41 54 55 75 89 100 100
56 78 94 87 85 93 95 92 86 87 64 46 59 58 41 22 29 59 62 47 35 30 27 31 34 31 27 25 39 39 54 58 57 54 54 77 77 60 50 65 65 73 94 88 76 85 91
73 90 86 83 86 96 94 94 90 88 83 48 67 66 33 26 37 58 83 66 43 33 33 35 34 39 38 36 38 37 50 48 47 56 72 70 87 96 68 71 87 87 82 91 96 87 92
78 88 82 82 86 92 86 90 91 94 89 68 90 69 39 35 42 48 38 31 33 33 36 38 39 39 38 40 52 36 30 38 43 53 69 70 92 96 69 68 81 88 85 82 83 93 97
80 80 80 81 91 88 87 96 96 95 87 59 84 71 58 53 48 35 54 56 51 39 36 36 37 34 38 43 43 59 38 35 43 41 40 51 85 76 81 64 89 98 96 88 80 98 92
84 74 91 86 83 84 97 97 93 78 77 69 80 76 59 69 62 68 63 59 61 58 44 41 48 49 55 64 53 57 49 43 43 37 37 67 96 89 74 70 82 86 92 90 93 88 85
92 83 84 86 93 93 87 92 81 73 68 81 90 95 88 83 72 70 69 68 62 57 56 59 71 58 62 75 69 74 64 66 67 77 93 73 96 87 86 68 67 83 91 94 97 100 100
85 90 80 85 86 94 92 87 82 83 78 95 84 82 95 80 74 72 69 60 58 56 52 56 60 71 76 70 64 62 63 63 67 69 74 79 92 95 91 64 65 83 94 89 94 97 89
85 83 87 86 91 84 84 84 87 86 86 83 97 99 99 84 76 64 60 61 73 81 85 68 65 72 76 77 61 54 58 67 79 68 71 94 90 92 93 93 98 90 73 69 88 99 99
84 85 82 84 84 82 87 82 76 72 73 72 80 96 98 97 81 81 73 95 89 76 73 79 81 89 94 96 93 94 95 92 85 80 68 54 86 96 96 96 94 97 92 90 88 98 99
91 85 83 83 78 87 81 75 71 70 79 85 80 82 98 98 91 91 95 91 98 98 79 76 73 77 82 94 98 99 80 81 93 88 75 73 79 87 98 94 99 100 90 80 80 100 96
80 84 79 80 90 81 74 72 70 77 87 86 75 86 99 97 96 97 97 99 97 95 95 78 93 83 77 91 96 94 83 89 91 94 93 94 96 96 97 94 96 92 87 85 97 96 89
83 79 84 81 77 75 72 72 79 86 80 82 78 89 94 98 96 89 92 96 94 94 97 88 81 81 94 98 94 87 96 96 90 94 95 93 98 100 93 100 99 87 87 92 97 94 90
84 81 77 79 75 72 71 73 82 78 80 83 85 87 82 93 97 92 98 96 95 96 96 91 91 89 95 95 95 89 90 92 96 99 82 92 98 100 97 97 96 96 96 95 95 94 92

GFSGBSN_925_rhum_300.txt.gz
RH
88 85 90 89 91 92 92 94 95 95 95 94 82 42 12 7 6 5 4 4 9 18 29 23 24 24 37 27 20 12 11 16 13 23 25 26 36 38 36 39 36 36 34 30 34 34 31
91 90 86 87 91 91 93 94 94 95 95 94 54 25 16 8 4 3 3 3 9 16 25 27 22 30 35 24 12 12 11 14 14 24 31 31 33 31 39 43 38 33 33 36 35 34 35
89 86 86 88 89 92 93 93 94 94 95 94 92 71 27 10 4 3 2 3 9 17 19 26 30 44 22 22 14 11 12 15 15 16 32 35 35 28 32 32 31 27 30 29 27 26 23
89 89 86 88 88 91 92 92 93 94 92 94 95 70 19 6 3 2 2 4 11 14 19 28 38 49 31 22 21 12 11 16 12 15 22 34 35 35 34 30 36 26 28 29 20 26 14
89 87 90 87 89 90 91 92 92 92 92 94 95 90 38 8 4 3 3 6 14 11 23 30 32 41 40 21 17 14 12 17 14 14 17 33 29 40 35 48 44 43 29 39 26 17 15
89 89 88 88 87 87 89 90 90 90 91 93 94 95 62 11 4 4 3 16 19 23 27 30 32 22 23 22 17 17 13 14 17 17 23 18 29 48 54 49 29 39 48 29 25 19 21
89 88 89 86 88 88 88 88 89 90 91 92 94 94 71 7 6 6 3 16 10 17 14 30 32 26 22 22 19 18 16 17 16 16 28 22 22 32 36 36 24 22 21 23 22 23 20
90 90 90 88 88 87 88 87 87 88 90 91 92 90 57 6 12 11 6 42 43 36 28 38 26 21 20 24 25 25 16 17 16 22 17 24 26 25 27 21 20 21 23 28 27 26 20
91 89 89 89 88 89 88 87 87 90 90 91 93 87 16 6 14 20 23 52 47 52 48 39 27 23 21 23 28 28 24 21 16 16 18 28 24 28 24 22 27 29 50 31 28 28 28
91 89 89 88 88 86 88 88 88 86 90 92 93 56 21 8 17 29 32 43 54 61 40 34 34 27 22 24 28 20 21 21 19 20 18 19 20 25 19 20 19 39 28 30 34 46 50
87 87 82 90 87 88 87 88 88 89 89 92 92 51 28 15 22 27 27 43 60 59 44 40 32 20 19 26 28 25 22 20 20 20 15 19 29 23 25 23 16 28 26 27 38 69 71
88 86 74 87 88 86 90 88 88 89 91 93 88 42 23 19 32 28 25 53 64 46 40 44 29 27 27 25 27 25 26 25 24 27 26 22 21 21 25 28 24 32 38 45 61 76 87
85 82 81 85 87 88 91 90 89 89 88 90 61 38 25 23 31 22 33 49 50 51 23 34 32 30 30 32 36 28 30 40 43 35 34 31 25 26 24 30 36 48 65 76 76 93 74
85 74 83 76 81 91 90 90 90 87 87 80 48 34 34 31 24 22 40 25 24 22 35 26 29 28 31 29 30 31 33 52 70 62 60 64 49 32 28 52 50 47 64 81 77 90 78
86 75 75 78 94 92 86 89 88 87 82 59 48 43 38 38 22 26 33 44 25 30 29 29 26 34 36 34 29 35 39 60 62 68 57 72 50 36 32 28 39 52 65 59 76 84 100
83 69 79 94 89 85 94 93 89 88 70 52 56 56 42 31 23 32 31 25 30 29 28 29 24 28 29 41 38 42 46 61 71 58 52 60 60 38 38 35 56 53 54 74 92 100 100
74 78 89 88 79 95 94 93 91 90 66 44 53 56 41 23 32 52 43 42 36 30 27 29 33 34 30 29 46 45 55 58 54 58 55 73 70 55 44 63 64 63 90 91 80 86 97
79 80 95 84 83 92 89 90 91 94 64 46 66 43 36 28 41 67 75 68 46 34 33 30 33 37 40 37 40 38 52 51 56 59 69 75 86 97 75 74 86 84 78 83 94 91 95
78 91 83 84 88 88 93 96 95 92 88 64 85 78 43 38 39 47 41 36 32 33 37 41 42 42 39 43 52 43 33 32 56 55 74 74 96 100 66 61 78 88 88 86 91 96 93
80 85 81 80 89 89 90 96 90 78 89 56 79 56 60 56 50 42 63 60 54 45 38 37 39 38 41 48 49 58 41 36 48 49 47 55 91 72 68 56 83 100 100 93 90 97 96
85 82 87 85 84 88 93 79 72 66 65 66 83 80 63 63 62 68 63 62 63 63 48 42 51 49 59 65 55 55 53 46 45 46 44 74 95 85 57 56 82 76 86 95 96 90 86
87 90 83 92 89 90 83 93 87 73 64 76 80 88 86 88 78 71 67 75 68 64 64 62 70 59 70 74 69 76 59 61 66 60 75 98 88 93 92 67 74 84 88 94 95 96 99
95 89 86 86 86 93 91 85 84 86 78 84 89 84 92 79 82 80 79 67 62 64 61 56 66 84 79 71 70 69 61 60 66 73 95 96 97 95 92 70 71 92 89 98 96 97 86
96 87 85 97 93 86 85 88 84 83 82 72 84 98 98 90 92 73 61 64 73 77 93 80 81 86 79 86 84 89 94 92 92 85 61 94 94 92 92 92 100 80 88 77 90 96 98
93 95 88 87 86 84 87 83 77 73 74 74 83 89 99 97 81 76 86 87 94 82 87 80 84 95 94 95 97 96 88 89 83 73 85 74 89 96 96 97 90 94 93 97 97 94 97
95 87 83 84 80 86 83 77 73 72 79 88 86 89 94 96 92 96 98 95 96 99 84 75 76 76 81 92 93 97 94 78 84 90 87 94 95 93 94 99 99 99 91 90 94 96 98
88 88 82 82 87 82 76 74 72 82 88 78 79 95 96 98 96 97 96 97 95 96 96 89 92 85 77 94 88 96 91 80 98 96 95 94 95 97 97 97 98 94 90 91 98 96 89
90 82 86 81 78 77 73 73 83 83 84 83 96 96 89 98 96 96 97 98 95 92 96 87 78 75 96 96 97 93 99 95 92 94 96 93 97 95 95 98 98 86 86 93 97 95 90
85 82 79 80 76 74 73 72 84 78 80 80 86 84 79 89 98 90 95 92 94 95 98 93 92 93 96 95 94 90 90 90 97 96 90 95 98 96 99 98 96 96 97 96 96 94 90